Home   Weather   Bridgetown   Past weeks

Flag for Barbados Past Weather in Bridgetown, Barbados — Yesterday and Last 2 Weeks

Now
84 °F

Partly sunny.


Feels Like: 92 °F
Forecast: 78 / 83 °F
Wind: 20 mph from East

Location: Grantley Adams

Current Time: Jan 22, 2017 at 12:26:19 pm

Latest Report: Jan 22, 2017 at 12:00 pm


Visibility: N/A

Pressure: 29.95 "Hg

Humidity: 74%

Dew Point: 75 °F

Location of BridgetownLocation

Past Weather in Bridgetown — Graph

°F

Bridgetown Temperature Yesterday

Maximum temperature yesterday: 84 °F (at 11:00 am)
Minimum temperature yesterday: 77 °F (at 12:00 am)
Average temperature yesterday: 80 °F

High & Low Weather Summary for the Past Weeks

 TemperatureHumidityPressure
High84 °F (Jan 7, 11:00 am)94% (Jan 8, 2:00 am)30.04 "Hg (Jan 8, 2:00 am)
Low68 °F (Jan 14, 12:00 am)51% (Jan 12, 3:00 pm)29.86 "Hg (Jan 10, 3:00 am)
Average79 °F75%29.93 "Hg
* Reported Jan 7 11:00 am — Jan 22 11:00 am, Bridgetown, Weather by CustomWeather, © 2017

Note: Actual official high and low records may vary slightly from our data, if they occured in-between our weather recording intervals... More about our weather records

Advertising

Bridgetown Weather History for the Previous 24 Hours

Scroll right to see more
 ConditionsComfort  
Time TempWeatherWind HumidityBarometerVisibility
11:00 am
Sun, Jan 22
84 °FPartly sunny.20 mph70%29.98 "HgN/A
10:00 am84 °FPartly sunny.17 mph74%29.98 "HgN/A
9:00 am82 °FScattered clouds.16 mph74%29.98 "HgN/A
8:00 am79 °FScattered clouds.14 mph84%29.95 "HgN/A
6:00 am77 °FPassing clouds.14 mph89%29.92 "HgN/A
5:00 am77 °FPassing clouds.13 mph83%29.89 "HgN/A
4:00 am77 °FPassing clouds.14 mph83%29.89 "HgN/A
3:00 am77 °FPassing clouds.9 mph83%29.89 "HgN/A
2:00 am77 °FPassing clouds.12 mph83%29.92 "HgN/A
1:00 am77 °FPassing clouds.7 mph83%29.92 "HgN/A
12:00 am77 °FPassing clouds.12 mph89%29.95 "HgN/A
11:00 pm
Sat, Jan 21
77 °FPassing clouds.7 mph89%29.95 "HgN/A
10:00 pm77 °FPassing clouds.10 mph83%29.92 "HgN/A
9:00 pm79 °FPassing clouds.12 mph79%29.92 "HgN/A
8:00 pm79 °FPassing clouds.14 mph79%29.89 "HgN/A
7:00 pm79 °FPassing clouds.12 mph79%29.89 "HgN/A
6:00 pm79 °FPassing clouds.13 mph79%29.89 "HgN/A
5:00 pm81 °FScattered clouds.14 mph74%29.89 "HgN/A
4:00 pm82 °FScattered clouds.16 mph70%29.89 "HgN/A
3:00 pm82 °FScattered clouds.15 mph70%29.89 "HgN/A
2:00 pm84 °FScattered clouds.17 mph70%29.89 "HgN/A
1:00 pm82 °FScattered clouds.14 mph74%29.98 "HgN/A
12:00 pm84 °FBroken clouds.17 mph70%29.95 "Hg6 mi
Weather by CustomWeather, © 2017

See weather overviewHow to use our weather pages